This demonstration page uses our WeatherBlox Daily Observations layout. Learn more.

Left ArrowRight Arrow

Hourly Observations for January 1, 2017

Temp ( °F °C ) Dew Point ( °F °C ) Humidity (%) Winds ( mph kmh ) Pressure ( in mb ) Visibility ( mi km ) Precip ( " mm )
12:53 am 00:53 Mostly Cloudy 34 1.1 32 0 92 92 Calm 29.90 1012 8 13 0.00 0.00
1:53 am 01:53 Cloudy 39 3.9 35 1.7 86 86 Calm 29.90 1013 10 16 0.00 0.00
2:53 am 02:53 Cloudy 39 3.9 35 1.7 86 86 Calm 29.91 1013 10 16 0.00 0.00
3:53 am 03:53 Cloudy 40 4.4 36 2.2 86 86 Calm 29.91 1013 10 16 0.00 0.00
4:53 am 04:53 Cloudy 41 5 36 2.2 82 82 Calm 29.91 1013 10 16 0.00 0.00
5:50 am 05:50 Cloudy 39 4 36 2 87 87 Calm 29.94 1014 10 16 0.00 0.00
5:53 am 05:53 Cloudy 40 4.4 37 2.8 89 89 Calm 29.90 1012 10 16 0.00 0.00
6:53 am 06:53 Cloudy 41 5 38 3.3 89 89 Calm 29.90 1013 9 14 0.00 0.00
7:53 am 07:53 Cloudy 42 5.6 39 3.9 89 89 SE 3 6 29.91 1013 9 14 0.00 0.00
8:39 am 08:39 Mostly Cloudy 42 5.6 39 3.9 89 89 WSW 3 6 29.94 1014 8 13 0.00 0.00
8:53 am 08:53 Mostly Cloudy 43 6.1 38 3.3 82 82 WSW 5 7 29.91 1013 10 16 0.00 0.00
8:58 am 08:58 Partly Cloudy 43 6.1 38 3.3 82 82 WSW 6 9 29.94 1014 10 16 0.00 0.00
9:53 am 09:53 Sunny 45 7.2 38 3.3 77 77 SW 3 6 29.91 1013 10 16 0.00 0.00
10:53 am 10:53 Sunny 47 8.3 35 1.7 63 63 S 7 11 29.89 1012 10 16 0.00 0.00
11:53 am 11:53 Partly Cloudy 50 10 30 -1.1 46 46 S 9 15 29.83 1010 10 16 0.00 0.00
12:53 pm 12:53 Mostly Cloudy 51 10.6 27 -2.8 39 39 SW 8 13 29.80 1009 10 16 0.00 0.00
1:53 pm 13:53 Cloudy 52 11.1 27 -2.8 38 38 SSW 15 24 29.77 1008 10 16 0.00 0.00
2:53 pm 14:53 Cloudy 51 10.6 27 -2.8 39 39 SW 12 19 29.77 1008 10 16 0.00 0.00
3:53 pm 15:53 Sunny 59 15 34 1 39 39 N 6 9 29.88 1012 10 16 0.00 0.00
4:51 pm 16:51 Cloudy 45 7 39 4 81 81 SSE 14 22 29.80 1009 10 16 0.00 0.00
4:53 pm 16:53 Cloudy 44 6.7 40 4.4 85 85 SSE 13 20 29.78 1009 10 16 0.00 0.00
5:16 pm 17:16 Mostly Cloudy 43 6 39 4 87 87 SSE 15 24 29.80 1009 10 16 0.00 0.00
5:53 pm 17:53 Mostly Cloudy 42 5.6 39 3.9 89 89 S 14 22 29.79 1009 10 16 0.00 0.00
6:04 pm 18:04 Mostly Cloudy 43 6 39 4 87 87 S 17 28 29.83 1010 10 16 0.00 0.00
6:12 pm 18:12 Partly Cloudy 43 6 39 4 87 87 S 15 24 29.83 1010 10 16 0.00 0.00
6:53 pm 18:53 Cloudy 42 5.6 39 3.9 89 89 S 15 24 29.78 1009 10 16 0.00 0.00
7:53 pm 19:53 Mostly Cloudy 41 5 39 3.9 93 93 SSW 9 15 29.79 1009 10 16 0.00 0.00
8:53 pm 20:53 Mostly Cloudy 41 5 38 3.3 89 89 SSW 7 11 29.81 1010 10 16 0.00 0.00
9:53 pm 21:53 Clear 39 3.9 34 1.1 82 82 SSW 6 9 29.83 1010 10 16 0.00 0.00
10:53 pm 22:53 Partly Cloudy 39 3.9 29 -1.7 67 67 SSW 5 7 29.83 1010 10 16 0.00 0.00
11:53 pm 23:53 Clear 39 3.9 30 -1.1 70 70 S 6 9 29.83 1010 10 16 0.00 0.00

Powered by AerisWeather